Time,TemperatureF,DewpointF,PressureIn,WindDirection,WindDirectionDegrees,WindSpeedMPH,WindSpeedGustMPH,Humidity,HourlyPrecipIn,Conditions,Clouds,dailyrainin,SoftwareType,DateUTC
2013-03-05 00:02:00,28.0,23.0,-100.00,SSW,204,0.0,12.0,78,0.00,,,-99.99,,2013-03-05 05:02:00,
2013-03-05 00:12:00,28.0,23.0,-100.00,WNW,303,0.0,12.0,78,0.00,,,-99.99,,2013-03-05 05:12:00,
2013-03-05 00:22:00,27.0,23.0,-100.00,WNW,285,0.0,12.0,78,0.00,,,-99.99,,2013-03-05 05:22:00,
2013-03-05 00:32:00,26.0,21.0,-100.00,SSW,193,0.0,12.0,80,0.00,,,-99.99,,2013-03-05 05:32:00,
2013-03-05 00:42:00,27.0,23.0,-100.00,NNE,14,0.0,12.0,81,0.00,,,-99.99,,2013-03-05 05:42:00,
2013-03-05 00:52:00,27.0,23.0,-100.00,SSW,203,0.0,12.0,81,0.00,,,-99.99,,2013-03-05 05:52:00,
2013-03-05 01:01:00,26.0,23.0,-100.00,North,360,0.0,12.0,82,0.00,,,-99.99,,2013-03-05 06:01:00,
2013-03-05 01:11:00,27.0,23.0,-100.00,NNE,16,0.0,12.0,82,0.00,,,-99.99,,2013-03-05 06:11:00,
2013-03-05 01:22:00,26.0,23.0,-100.00,ENE,72,0.0,12.0,82,0.00,,,-99.99,,2013-03-05 06:22:00,
2013-03-05 01:32:00,26.0,23.0,-100.00,ESE,111,0.0,12.0,84,0.00,,,-99.99,,2013-03-05 06:32:00,
2013-03-05 01:42:00,26.0,23.0,-100.00,NNW,341,0.0,12.0,84,0.00,,,-99.99,,2013-03-05 06:42:00,
2013-03-05 01:52:00,26.0,23.0,-100.00,East,83,1.0,12.0,82,0.00,,,-99.99,,2013-03-05 06:52:00,
2013-03-05 02:01:00,26.0,21.0,-100.00,WSW,242,1.0,12.0,82,0.00,,,-99.99,,2013-03-05 07:01:00,
2013-03-05 02:11:00,26.0,23.0,-100.00,SW,216,1.0,12.0,84,0.00,,,-99.99,,2013-03-05 07:11:00,
2013-03-05 02:22:00,25.0,21.0,-100.00,NE,52,0.0,12.0,84,0.00,,,-99.99,,2013-03-05 07:22:00,
2013-03-05 02:32:00,26.0,23.0,-100.00,WSW,256,0.0,12.0,85,0.00,,,-99.99,,2013-03-05 07:32:00,
2013-03-05 02:42:00,25.0,21.0,-100.00,ENE,66,0.0,12.0,85,0.00,,,-99.99,,2013-03-05 07:42:00,
2013-03-05 02:51:00,24.0,21.0,-100.00,South,169,0.0,12.0,86,0.00,,,-99.99,,2013-03-05 07:51:00,
2013-03-05 03:02:00,24.0,21.0,-100.00,ENE,76,0.0,0.0,86,0.00,,,-99.99,,2013-03-05 08:02:00,
2013-03-05 03:11:00,23.0,21.0,-100.00,NE,45,0.0,0.0,86,0.00,,,-99.99,,2013-03-05 08:11:00,
2013-03-05 03:21:00,23.0,21.0,-100.00,WNW,295,0.0,0.0,86,0.00,,,-99.99,,2013-03-05 08:21:00,
2013-03-05 03:31:00,24.0,21.0,-100.00,NW,312,0.0,0.0,86,0.00,,,-99.99,,2013-03-05 08:31:00,
2013-03-05 03:42:00,23.0,19.0,-100.00,South,183,0.0,0.0,86,0.00,,,-99.99,,2013-03-05 08:42:00,
2013-03-05 03:52:00,22.0,21.0,-100.00,ESE,114,1.0,1.0,88,0.00,,,-99.99,,2013-03-05 08:52:00,
2013-03-05 04:01:00,23.0,21.0,-100.00,ESE,103,0.0,1.0,88,0.00,,,-99.99,,2013-03-05 09:01:00,
2013-03-05 04:11:00,22.0,19.0,-100.00,South,183,1.0,1.0,88,0.00,,,-99.99,,2013-03-05 09:11:00,
2013-03-05 04:21:00,22.0,19.0,-100.00,East,97,0.0,1.0,88,0.00,,,-99.99,,2013-03-05 09:21:00,
2013-03-05 04:32:00,22.0,19.0,-100.00,East,84,0.0,1.0,88,0.00,,,-99.99,,2013-03-05 09:32:00,
2013-03-05 04:43:00,24.0,23.0,-100.00,East,96,0.0,1.0,90,0.00,,,-99.99,,2013-03-05 09:43:00,
2013-03-05 04:52:00,24.0,21.0,-100.00,SSW,197,1.0,1.0,89,0.00,,,-99.99,,2013-03-05 09:52:00,
2013-03-05 05:01:00,24.0,23.0,-100.00,SSW,206,0.0,1.0,91,0.00,,,-99.99,,2013-03-05 10:01:00,
2013-03-05 05:11:00,24.0,23.0,-100.00,SSE,158,0.0,1.0,90,0.00,,,-99.99,,2013-03-05 10:11:00,
2013-03-05 05:22:00,24.0,23.0,-100.00,NE,38,0.0,1.0,90,0.00,,,-99.99,,2013-03-05 10:22:00,
2013-03-05 05:32:00,23.0,21.0,-100.00,South,176,0.0,1.0,91,0.00,,,-99.99,,2013-03-05 10:32:00,
2013-03-05 05:42:00,21.0,19.0,-100.00,SSW,210,0.0,1.0,90,0.00,,,-99.99,,2013-03-05 10:42:00,
2013-03-05 05:52:00,23.0,21.0,-100.00,SSE,151,0.0,1.0,91,0.00,,,-99.99,,2013-03-05 10:52:00,
2013-03-05 06:02:00,23.0,21.0,-100.00,SE,146,0.0,1.0,91,0.00,,,-99.99,,2013-03-05 11:02:00,
2013-03-05 06:11:00,21.0,19.0,-100.00,NNE,28,0.0,1.0,90,0.00,,,-99.99,,2013-03-05 11:11:00,
2013-03-05 06:22:00,24.0,21.0,-100.00,SW,228,1.0,1.0,90,0.00,,,-99.99,,2013-03-05 11:22:00,
2013-03-05 06:32:00,21.0,19.0,-100.00,ESE,118,0.0,1.0,89,0.00,,,-99.99,,2013-03-05 11:32:00,
2013-03-05 06:42:00,24.0,23.0,-100.00,SSW,213,0.0,1.0,90,0.00,,,-99.99,,2013-03-05 11:42:00,
2013-03-05 06:52:00,23.0,21.0,-100.00,SE,144,1.0,1.0,90,0.00,,,-99.99,,2013-03-05 11:52:00,
2013-03-05 07:02:00,22.0,19.0,-100.00,SSW,201,1.0,1.0,89,0.00,,,-99.99,,2013-03-05 12:02:00,
2013-03-05 07:12:00,22.0,19.0,-100.00,SSW,201,1.0,1.0,88,0.00,,,-99.99,,2013-03-05 12:12:00,
2013-03-05 07:22:00,22.0,19.0,-100.00,SSE,168,1.0,1.0,88,0.00,,,-99.99,,2013-03-05 12:22:00,
2013-03-05 07:32:00,24.0,21.0,-100.00,South,189,0.0,1.0,89,0.00,,,-99.99,,2013-03-05 12:32:00,
2013-03-05 07:42:00,22.0,19.0,-100.00,SSW,213,1.0,1.0,86,0.00,,,-99.99,,2013-03-05 12:42:00,
2013-03-05 07:52:00,22.0,19.0,-100.00,South,170,1.0,2.0,86,0.00,,,-99.99,,2013-03-05 12:52:00,
2013-03-05 08:02:00,22.0,19.0,-100.00,South,176,1.0,2.0,86,0.00,,,-99.99,,2013-03-05 13:02:00,
2013-03-05 08:12:00,23.0,21.0,-100.00,South,187,1.0,2.0,86,0.00,,,-99.99,,2013-03-05 13:12:00,
2013-03-05 08:22:00,24.0,21.0,-100.00,South,189,1.0,2.0,85,0.00,,,-99.99,,2013-03-05 13:22:00,
2013-03-05 08:32:00,24.0,21.0,-100.00,SSE,162,1.0,2.0,84,0.00,,,-99.99,,2013-03-05 13:32:00,
2013-03-05 08:42:00,26.0,23.0,-100.00,ESE,103,1.0,2.0,82,0.00,,,-99.99,,2013-03-05 13:42:00,
2013-03-05 08:52:00,27.0,23.0,-100.00,SSW,192,1.0,2.0,80,0.00,,,-99.99,,2013-03-05 13:52:00,
2013-03-05 09:02:00,28.0,23.0,-100.00,East,88,1.0,2.0,77,0.00,,,-99.99,,2013-03-05 14:02:00,
2013-03-05 09:11:00,28.0,21.0,-100.00,East,79,2.0,2.0,75,0.00,,,-99.99,,2013-03-05 14:11:00,
2013-03-05 09:22:00,28.0,23.0,-100.00,SSE,163,2.0,2.0,75,0.00,,,-99.99,,2013-03-05 14:22:00,
2013-03-05 09:32:00,29.0,23.0,-100.00,SSW,204,2.0,2.0,75,0.00,,,-99.99,,2013-03-05 14:32:00,
2013-03-05 09:42:00,30.0,23.0,-100.00,ESE,122,2.0,2.0,72,0.00,,,-99.99,,2013-03-05 14:42:00,
2013-03-05 09:52:00,30.0,23.0,-100.00,East,93,4.0,6.0,71,0.00,,,-99.99,,2013-03-05 14:52:00,
2013-03-05 10:02:00,31.0,23.0,-100.00,East,86,2.0,6.0,67,0.00,,,-99.99,,2013-03-05 15:02:00,
2013-03-05 10:11:00,32.0,23.0,-100.00,East,96,2.0,6.0,64,0.00,,,-99.99,,2013-03-05 15:11:00,
2013-03-05 10:22:00,32.0,23.0,-100.00,SE,135,2.0,6.0,64,0.00,,,-99.99,,2013-03-05 15:22:00,
2013-03-05 10:32:00,32.0,21.0,-100.00,ESE,110,1.0,6.0,63,0.00,,,-99.99,,2013-03-05 15:32:00,
2013-03-05 10:42:00,33.0,21.0,-100.00,SE,134,2.0,6.0,59,0.00,,,-99.99,,2013-03-05 15:42:00,
2013-03-05 10:52:00,32.0,19.0,-100.00,East,101,2.0,6.0,58,0.00,,,-99.99,,2013-03-05 15:52:00,
2013-03-05 11:02:00,33.0,21.0,-100.00,SSE,156,2.0,6.0,58,0.00,,,-99.99,,2013-03-05 16:02:00,
2013-03-05 11:11:00,35.0,21.0,-100.00,ESE,112,1.0,6.0,54,0.00,,,-99.99,,2013-03-05 16:11:00,
2013-03-05 11:22:00,34.0,19.0,-100.00,SSE,166,4.0,6.0,51,0.00,,,-99.99,,2013-03-05 16:22:00,
2013-03-05 11:32:00,35.0,19.0,-100.00,SE,134,3.0,6.0,50,0.00,,,-99.99,,2013-03-05 16:32:00,
2013-03-05 11:42:00,36.0,19.0,-100.00,South,175,2.0,6.0,51,0.00,,,-99.99,,2013-03-05 16:42:00,
2013-03-05 11:52:00,35.0,18.0,-100.00,SSE,168,2.0,6.0,47,0.00,,,-99.99,,2013-03-05 16:52:00,
2013-03-05 12:01:00,38.0,19.0,-100.00,SSE,163,2.0,6.0,46,0.00,,,-99.99,,2013-03-05 17:01:00,
2013-03-05 12:11:00,38.0,19.0,-100.00,East,88,2.0,6.0,44,0.00,,,-99.99,,2013-03-05 17:11:00,
2013-03-05 12:22:00,40.0,19.0,-100.00,SSE,168,2.0,6.0,41,0.00,,,-99.99,,2013-03-05 17:22:00,
2013-03-05 12:32:00,38.0,18.0,-100.00,ENE,59,2.0,6.0,41,0.00,,,-99.99,,2013-03-05 17:32:00,
2013-03-05 12:42:00,40.0,16.0,-100.00,South,177,2.0,6.0,36,0.00,,,-99.99,,2013-03-05 17:42:00,
2013-03-05 12:52:00,41.0,18.0,-100.00,ESE,117,2.0,6.0,36,0.00,,,-99.99,,2013-03-05 17:52:00,
2013-03-05 13:02:00,41.0,18.0,-100.00,North,8,3.0,6.0,37,0.00,,,-99.99,,2013-03-05 18:02:00,
2013-03-05 13:11:00,40.0,16.0,-100.00,South,179,4.0,6.0,36,0.00,,,-99.99,,2013-03-05 18:11:00,
2013-03-05 13:22:00,41.0,16.0,-100.00,SE,136,3.0,6.0,33,0.00,,,-99.99,,2013-03-05 18:22:00,
2013-03-05 13:32:00,41.0,14.0,-100.00,SSE,151,3.0,6.0,33,0.00,,,-99.99,,2013-03-05 18:32:00,
2013-03-05 13:42:00,43.0,16.0,-100.00,ESE,118,2.0,6.0,32,0.00,,,-99.99,,2013-03-05 18:42:00,
2013-03-05 13:52:00,41.0,16.0,-100.00,South,175,2.0,6.0,34,0.00,,,-99.99,,2013-03-05 18:52:00,
2013-03-05 14:01:00,43.0,18.0,-100.00,SE,144,1.0,6.0,34,0.00,,,-99.99,,2013-03-05 19:01:00,
2013-03-05 14:11:00,43.0,16.0,-100.00,East,87,4.0,8.0,31,0.00,,,-99.99,,2013-03-05 19:11:00,
2013-03-05 14:22:00,44.0,18.0,-100.00,SE,128,3.0,8.0,32,0.00,,,-99.99,,2013-03-05 19:22:00,
2013-03-05 14:32:00,43.0,18.0,-100.00,East,93,3.0,8.0,33,0.00,,,-99.99,,2013-03-05 19:32:00,
2013-03-05 14:42:00,44.0,18.0,-100.00,East,80,4.0,8.0,34,0.00,,,-99.99,,2013-03-05 19:42:00,
2013-03-05 14:52:00,44.0,18.0,-100.00,ESE,105,5.0,8.0,33,0.00,,,-99.99,,2013-03-05 19:52:00,
2013-03-05 15:01:00,45.0,16.0,-100.00,SE,127,4.0,8.0,29,0.00,,,-99.99,,2013-03-05 20:01:00,
2013-03-05 15:11:00,45.0,18.0,-100.00,ESE,122,4.0,8.0,31,0.00,,,-99.99,,2013-03-05 20:11:00,
2013-03-05 15:22:00,45.0,18.0,-100.00,ENE,74,3.0,8.0,32,0.00,,,-99.99,,2013-03-05 20:22:00,
2013-03-05 15:32:00,44.0,18.0,-100.00,East,90,4.0,8.0,32,0.00,,,-99.99,,2013-03-05 20:32:00,
2013-03-05 15:42:00,44.0,18.0,-100.00,East,94,6.0,8.0,32,0.00,,,-99.99,,2013-03-05 20:42:00,
2013-03-05 15:52:00,44.0,18.0,-100.00,East,97,5.0,8.0,32,0.00,,,-99.99,,2013-03-05 20:52:00,
2013-03-05 16:02:00,44.0,18.0,-100.00,ENE,69,6.0,8.0,34,0.00,,,-99.99,,2013-03-05 21:02:00,
2013-03-05 16:11:00,44.0,18.0,-100.00,SE,134,5.0,8.0,34,0.00,,,-99.99,,2013-03-05 21:11:00,
2013-03-05 16:22:00,45.0,19.0,-100.00,ESE,111,3.0,8.0,33,0.00,,,-99.99,,2013-03-05 21:22:00,
2013-03-05 16:32:00,44.0,18.0,-100.00,ESE,110,5.0,8.0,34,0.00,,,-99.99,,2013-03-05 21:32:00,
2013-03-05 16:42:00,44.0,18.0,-100.00,East,96,6.0,8.0,34,0.00,,,-99.99,,2013-03-05 21:42:00,
2013-03-05 16:52:00,44.0,19.0,-100.00,East,86,6.0,10.0,36,0.00,,,-99.99,,2013-03-05 21:52:00,
2013-03-05 17:01:00,44.0,19.0,-100.00,ESE,117,4.0,10.0,34,0.00,,,-99.99,,2013-03-05 22:01:00,
2013-03-05 17:11:00,47.0,21.0,-100.00,NE,56,3.0,10.0,34,0.00,,,-99.99,,2013-03-05 22:11:00,
2013-03-05 17:22:00,46.0,23.0,-100.00,East,100,2.0,10.0,37,0.00,,,-99.99,,2013-03-05 22:22:00,
2013-03-05 17:32:00,46.0,23.0,-100.00,NNE,31,2.0,10.0,37,0.00,,,-99.99,,2013-03-05 22:32:00,
2013-03-05 17:42:00,46.0,19.0,-100.00,ESE,108,4.0,10.0,34,0.00,,,-99.99,,2013-03-05 22:42:00,
2013-03-05 17:52:00,46.0,19.0,-100.00,ESE,105,5.0,10.0,33,0.00,,,-99.99,,2013-03-05 22:52:00,
2013-03-05 18:01:00,45.0,19.0,-100.00,East,98,6.0,10.0,34,0.00,,,-99.99,,2013-03-05 23:01:00,
2013-03-05 18:11:00,45.0,19.0,-100.00,SE,127,5.0,10.0,34,0.00,,,-99.99,,2013-03-05 23:11:00,
2013-03-05 18:22:00,45.0,19.0,-100.00,East,100,6.0,10.0,34,0.00,,,-99.99,,2013-03-05 23:22:00,
2013-03-05 18:32:00,45.0,21.0,-100.00,ESE,108,4.0,10.0,36,0.00,,,-99.99,,2013-03-05 23:32:00,
2013-03-05 18:42:00,44.0,19.0,-100.00,East,94,5.0,10.0,36,0.00,,,-99.99,,2013-03-05 23:42:00,
2013-03-05 18:52:00,44.0,19.0,-100.00,SE,132,4.0,10.0,37,0.00,,,-99.99,,2013-03-05 23:52:00,
2013-03-05 19:02:00,44.0,21.0,-100.00,East,100,4.0,10.0,37,0.00,,,-99.99,,2013-03-06 00:02:00,
2013-03-05 19:11:00,43.0,19.0,-100.00,East,83,5.0,10.0,37,0.00,,,-99.99,,2013-03-06 00:11:00,
2013-03-05 19:22:00,43.0,21.0,-100.00,East,101,4.0,10.0,40,0.00,,,-99.99,,2013-03-06 00:22:00,
2013-03-05 19:32:00,43.0,19.0,-100.00,ESE,108,6.0,10.0,38,0.00,,,-99.99,,2013-03-06 00:32:00,
2013-03-05 19:42:00,43.0,19.0,-100.00,East,86,6.0,10.0,37,0.00,,,-99.99,,2013-03-06 00:42:00,
2013-03-05 19:52:00,43.0,19.0,-100.00,East,98,6.0,10.0,38,0.00,,,-99.99,,2013-03-06 00:52:00,
2013-03-05 20:02:00,43.0,21.0,-100.00,East,91,5.0,10.0,40,0.00,,,-99.99,,2013-03-06 01:02:00,
2013-03-05 20:11:00,43.0,21.0,-100.00,ENE,76,4.0,10.0,40,0.00,,,-99.99,,2013-03-06 01:11:00,
2013-03-05 20:22:00,43.0,21.0,-100.00,SE,138,6.0,10.0,40,0.00,,,-99.99,,2013-03-06 01:22:00,
2013-03-05 20:32:00,43.0,19.0,-100.00,ENE,72,7.0,10.0,38,0.00,,,-99.99,,2013-03-06 01:32:00,
2013-03-05 20:42:00,43.0,19.0,-100.00,East,98,8.0,12.0,38,0.00,,,-99.99,,2013-03-06 01:42:00,
2013-03-05 20:52:00,43.0,19.0,-100.00,ESE,112,10.0,14.0,38,0.00,,,-99.99,,2013-03-06 01:52:00,
2013-03-05 21:01:00,43.0,19.0,-100.00,SE,136,9.0,14.0,37,0.00,,,-99.99,,2013-03-06 02:01:00,
2013-03-05 21:11:00,43.0,19.0,-100.00,East,88,8.0,14.0,37,0.00,,,-99.99,,2013-03-06 02:11:00,
2013-03-05 21:22:00,42.0,19.0,-100.00,ESE,111,9.0,14.0,38,0.00,,,-99.99,,2013-03-06 02:22:00,
2013-03-05 21:32:00,42.0,19.0,-100.00,ENE,64,8.0,14.0,40,0.00,,,-99.99,,2013-03-06 02:32:00,
2013-03-05 21:42:00,42.0,21.0,-100.00,East,96,7.0,14.0,42,0.00,,,-99.99,,2013-03-06 02:42:00,
2013-03-05 21:52:00,42.0,21.0,-100.00,East,93,6.0,14.0,42,0.00,,,-99.99,,2013-03-06 02:52:00,
2013-03-05 22:02:00,42.0,23.0,-100.00,ESE,115,4.0,14.0,44,0.00,,,-99.99,,2013-03-06 03:02:00,
2013-03-05 22:11:00,42.0,23.0,-100.00,East,96,5.0,14.0,44,0.00,,,-99.99,,2013-03-06 03:11:00,
2013-03-05 22:22:00,42.0,23.0,-100.00,East,97,5.0,14.0,44,0.00,,,-99.99,,2013-03-06 03:22:00,
2013-03-05 22:32:00,42.0,23.0,-100.00,ESE,117,6.0,14.0,44,0.00,,,-99.99,,2013-03-06 03:32:00,
2013-03-05 22:42:00,42.0,23.0,-100.00,ENE,76,6.0,14.0,44,0.00,,,-99.99,,2013-03-06 03:42:00,
2013-03-05 22:52:00,43.0,23.0,-100.00,ESE,103,6.0,14.0,45,0.00,,,-99.99,,2013-03-06 03:52:00,
2013-03-05 23:02:00,42.0,23.0,-100.00,ESE,108,5.0,14.0,44,0.00,,,-99.99,,2013-03-06 04:02:00,
2013-03-05 23:11:00,42.0,23.0,-100.00,ENE,67,4.0,14.0,45,0.00,,,-99.99,,2013-03-06 04:11:00,
2013-03-05 23:22:00,42.0,23.0,-100.00,East,93,6.0,14.0,45,0.00,,,-99.99,,2013-03-06 04:22:00,
2013-03-05 23:32:00,41.0,23.0,-100.00,East,96,6.0,14.0,45,0.00,,,-99.99,,2013-03-06 04:32:00,
2013-03-05 23:42:00,42.0,23.0,-100.00,SE,125,5.0,14.0,46,0.00,,,-99.99,,2013-03-06 04:42:00,
2013-03-05 23:52:00,42.0,23.0,-100.00,ESE,103,6.0,14.0,45,0.00,,,-99.99,,2013-03-06 04:52:00,